Location: *
(46.3500°N, 10.9000°E)
Time: 22:02:01
(UTC+00:00)

Explorer 7 - Pass Details

Date: 21 April 2021
Orbit: 484 x 677 km, 50.3° (Epoch: 05 May)

Event Time Altitude Azimuth Distance (km) Brightness Sun altitude
Rises 18:58:26 0° 234° (SW) 2,609 10.7 -8.2°
Reaches altitude 10° 19:00:35 10° 231° (SW) 1,751 9.7 -8.5°
Maximum altitude 19:04:30 62° 151° (SSE) 611 6.8 -9.1°
Drops below altitude 10° 19:08:42 10° 70° (ENE) 1,870 9.1 -9.7°
Enters shadow 19:10:54 - 67° (ENE) 2,743 10.0 -10.1°
Sets 19:11:04 0° 67° (ENE) 2,806 - -10.1°
